Location: Oshawa
(43.9000°N, 78.8670°W)
Time: 13:40:34
(UTC-05:00)

Courier 1B - All Passes

Search period start: 21 February 2018 00:00
Search period end: 03 March 2018 00:00
Orbit: 963 x 1209 km, 28.3° (Epoch: 20 February)

Date Brightness Start Highest point End Pass type
(mag) Time Alt. Az. Time Alt. Az. Time Alt. Az.
21 Feb - 01:39:42 10° SW 01:45:39 24° S 01:51:30 10° SE night (unlit)
21 Feb - 03:34:38 10° SW 03:38:43 15° SSW 03:42:43 10° SSE visible
21 Feb - 22:53:18 10° SSW 22:58:45 21° SSE 23:04:14 10° ESE night (unlit)
22 Feb - 00:45:54 10° SW 00:51:59 25° S 00:58:00 10° SE night (unlit)
22 Feb - 02:40:11 10° WSW 02:45:08 18° SSW 02:50:01 10° SSE night (unlit)
22 Feb - 22:00:14 10° SSW 22:05:07 18° SSE 22:10:04 10° ESE night (unlit)
22 Feb - 23:52:15 10° SW 23:58:17 25° S 00:04:21 10° SE night (unlit)
23 Feb - 01:46:01 10° WSW 01:51:30 21° SSW 01:56:57 10° SSE night (unlit)
23 Feb - 21:07:31 10° S 21:11:32 15° SSE 21:15:37 10° SE visible
23 Feb - 22:58:44 10° SW 23:04:37 24° S 23:10:34 10° SE night (unlit)
24 Feb - 00:52:03 10° WSW 00:57:52 23° S 01:03:39 10° SE night (unlit)
24 Feb - 02:47:33 10° SW 02:50:55 13° SSW 02:54:15 10° S night (unlit)
24 Feb - 20:15:29 10° S 20:18:00 12° SSE 20:20:31 10° SE visible
24 Feb - 22:05:24 10° SW 22:10:57 22° S 22:16:39 10° ESE visible
24 Feb - 23:58:14 10° SW 00:04:11 24° S 00:10:11 10° SE night (unlit)
25 Feb - 01:52:51 10° SW 01:57:20 16° SSW 02:01:48 10° SSE night (unlit)
25 Feb - 21:12:15 10° SSW 21:17:20 20° SSE 21:22:34 10° ESE visible
25 Feb - 23:04:35 10° SW 23:10:31 25° S 23:16:34 10° SE night (unlit)
26 Feb - 00:58:34 10° WSW 01:03:43 19° SSW 01:08:52 10° SSE night (unlit)
26 Feb - 20:19:23 10° SSW 20:23:46 17° SSE 20:28:16 10° SE visible
26 Feb - 22:11:03 10° SW 22:16:51 24° S 22:22:48 10° SE visible
27 Feb - 00:04:34 10° WSW 00:10:04 21° SSW 00:15:39 10° SE night (unlit)
27 Feb - 02:01:13 10° SW 02:03:06 11° SSW 02:04:58 10° SSW night (unlit)
27 Feb - 19:26:57 10° S 19:30:14 14° SSE 19:33:36 10° SE visible
27 Feb - 21:17:41 10° SW 21:23:13 23° S 21:28:55 10° SE visible
27 Feb - 23:10:44 10° SW 23:16:25 23° S 23:22:13 10° SE night (unlit)
28 Feb - 01:05:50 10° SW 01:09:31 14° SSW 01:13:13 10° S night (unlit)
28 Feb - 18:36:07 10° SSE 18:36:45 10° SSE 18:37:24 10° SSE visible
28 Feb - 20:24:30 10° SSW 20:29:37 21° SSE 20:34:55 10° ESE visible
28 Feb - 22:17:04 10° SW 22:22:46 24° S 22:28:38 10° SE visible
01 Mar - 00:11:23 10° SW 00:15:55 17° SSW 00:20:31 10° SSE night (unlit)
01 Mar - 19:31:30 10° SSW 19:36:03 18° SSE 19:40:45 10° SE visible
01 Mar - 21:23:32 10° SW 21:29:08 24° S 21:34:56 10° SE visible
01 Mar - 23:17:17 10° SW 23:22:18 19° SSW 23:27:26 10° SSE night (unlit)
02 Mar - 18:38:51 10° SSW 18:42:33 15° SSE 18:46:21 10° SE visible
02 Mar - 20:30:08 10° SW 20:35:31 23° S 20:41:07 10° SE visible
02 Mar - 22:23:25 10° SW 22:28:41 21° S 22:34:06 10° SE visible
